EW4242 Weather Reports


time (UTC)temp
C
wind
direction
speed
KPH
gust
KPH
rain 1hr
cm
rain 24hr
cm
rain mn
cm
humidity
%
barometer
mb
20260506123744 6 0.0 3.2 0.00 0.51 0.41 93 1007.7
20260506122744 6 0.0 4.8 0.00 0.51 0.41 93 1007.3
20260506121805 6 135 1.6 4.8 0.00 0.51 0.41 93 1007.1
20260506120744 6 135 1.6 6.4 0.00 0.51 0.41 93 1007.2
20260506115805 6 0.0 3.2 0.00 0.51 0.41 93 1007.3
20260506114744 6 113 3.2 9.7 0.00 0.51 0.41 93 1007.3
20260506114037 6 135 3.2 9.7 0.00 0.51 0.41 93 1007.1
20260506113304 -17 0.0 0.0 0.00 0.51 0.41
20260506112517 -17 0.0 0.0 0.00 0.51 0.41
20260506112009 -17 0.0 0.0 0.00 0.51 0.41
20260506111608 -17 0.0 0.0 0.00 0.51 0.41
20260506110744 -17 0.0 0.0 0.00 0.51 0.41
20260506110016 -17 0.0 0.0 0.00 0.51 0.41
20260506105507 -17 0.0 0.0 0.00 0.51 0.41
20260506105106 -17 0.0 0.0 0.00 0.51 0.41
20260506104244 -17 0.0 0.0 0.00 0.51 0.41
20260506103517 -17 0.0 0.0 0.00 0.51 0.41
20260506103013 -17 0.0 0.0 0.00 0.51 0.41
20260506102612 -17 0.0 0.0 0.00 0.51 0.41
20260506101744 -17 0.0 0.0 0.00 0.51 0.41
20260506101017 -17 0.0 0.0 0.00 0.51 0.41
20260506100513 -17 0.0 0.0 0.00 0.51 0.41
20260506100112 -17 0.0 0.0 0.00 0.51 0.41
20260506095244 -17 0.0 0.0 0.03 0.51 0.41
20260506094517 -17 0.0 0.0 0.03 0.51 0.41
20260506094000 6 0.0 0.0 0.03 0.51 0.41 93 1006.7
20260506093600 6 135 1.6 6.4 0.03 0.51 0.41 93 1006.6
20260506092744 6 135 1.6 6.4 0.03 0.51 0.41 93 1006.8
20260506091746 6 135 1.6 8.0 0.03 0.51 0.41 93 1006.7
20260506090744 6 135 1.6 6.4 0.03 0.51 0.41 93 1007.0
20260506085746 7 0.0 3.2 0.03 0.51 0.41 93 1006.8
20260506084744 7 0.0 3.2 0.00 0.48 0.38 93 1007.3
20260506083748 7 113 3.2 9.7 0.00 0.48 0.38 93 1007.1
20260506082746 7 135 1.6 6.4 0.00 0.48 0.38 93 1007.0
20260506081806 7 135 1.6 6.4 0.00 0.48 0.38 93 1006.9
20260506080746 7 135 1.6 4.8 0.03 0.48 0.38 93 1006.9
20260506072746 7 135 1.6 4.8 0.13 0.48 0.38 93 1006.4
20260506071746 7 135 1.6 4.8 0.15 0.48 0.38 93 1006.6
20260506070744 7 0.0 3.2 0.15 0.46 0.36 93 1006.6
20260506061746 8 135 1.6 4.8 0.20 0.33 0.23 92 1006.7
20260506060746 8 0.0 3.2 0.20 0.30 0.20 92 1006.9
20260506050746 8 0.0 1.6 0.00 0.10 0.00 90 1007.9
20260506044746 8 0.0 0.0 0.00 0.10 0.00 90 1007.5
20260506043806 8 0.0 1.6 0.00 0.10 0.00 90 1007.5
20260506042746 8 0.0 0.0 0.00 0.10 0.00 90 1007.5
20260506041745 8 0.0 0.0 0.00 0.10 0.00 89 1007.4
20260506040746 8 0.0 0.0 0.00 0.10 0.00 89 1007.3
20260506035746 8 0.0 0.0 0.00 0.10 0.10 89 1007.1
20260506034746 8 0.0 1.6 0.00 0.10 0.10 89 1007.1
20260506033804 8 0.0 1.6 0.00 0.10 0.10 89 1007.2
20260506032746 8 0.0 1.6 0.00 0.10 0.10 88 1007.2
20260506031746 8 0.0 1.6 0.00 0.10 0.10 88 1007.1
20260506030746 8 0.0 3.2 0.00 0.10 0.10 87 1007.1
20260506025746 8 0.0 1.6 0.00 0.10 0.10 87 1007.0
20260506024746 8 0.0 3.2 0.00 0.10 0.10 86 1007.2
20260506023746 8 0.0 0.0 0.00 0.10 0.10 85 1007.2
20260506022746 8 0.0 3.2 0.00 0.10 0.10 84 1007.3
20260506021746 8 0.0 3.2 0.00 0.10 0.10 83 1007.3
20260506020806 8 0.0 3.2 0.00 0.10 0.10 83 1007.6
20260506015746 8 0.0 1.6 0.00 0.10 0.10 82 1007.6
20260506014746 8 135 1.6 6.4 0.00 0.10 0.10 80 1007.4
20260506013746 9 0.0 1.6 0.00 0.10 0.10 78 1007.2
20260506012746 9 113 1.6 8.0 0.00 0.10 0.10 76 1007.0
20260506011747 10 135 1.6 8.0 0.00 0.10 0.10 74 1006.8
20260506010746 10 0.0 0.0 0.00 0.10 0.10 74 1006.8
20260506005746 10 0.0 1.6 0.00 0.10 0.10 72 1006.6
20260506004745 10 0.0 0.0 0.00 0.10 0.10 72 1006.7
20260506003746 10 0.0 0.0 0.00 0.10 0.10 72 1006.5
20260506002806 10 0.0 0.0 0.00 0.10 0.10 69 1006.6
20260506001746 10 0.0 0.0 0.00 0.10 0.10 68 1006.3
20260506000745 10 0.0 3.2 0.00 0.10 0.10 68 1006.2
20260505235746 10 0.0 4.8 0.00 0.10 0.10 66 1006.2
20260505234746 10 0.0 0.0 0.00 0.10 0.10 65 1005.9
20260505233746 10 0 1.6 8.0 0.00 0.10 0.10 66 1005.9
20260505232746 10 0.0 3.2 0.00 0.10 0.10 68 1005.7
20260505231746 10 0 1.6 4.8 0.00 0.10 0.10 66 1005.6
20260505230745 10 0.0 1.6 0.00 0.10 0.10 67
20260505225745 10 315 1.6 4.8 0.00 0.10 0.10 67
20260505224806 10 0.0 3.2 0.00 0.10 0.10 68
20260505223746 10 293 1.6 8.0 0.00 0.10 0.10 68
20260505222745 10 293 3.2 9.7 0.00 0.10 0.10 68
20260505221746 10 270 3.2 11.3 0.00 0.10 0.10 68 1006.0
20260505220745 10 23 1.6 4.8 0.00 0.10 0.10 72 1005.7
20260505215806 10 315 6.4 14.5 0.00 0.10 0.10 72 1005.7
20260505214745 10 293 6.4 12.9 0.00 0.10 0.10 73 1005.7
20260505213745 10 293 8.0 16.1 0.00 0.10 0.10 75 1005.6
20260505212745 10 293 4.8 12.9 0.00 0.10 0.10 76 1005.6
20260505211746 10 315 4.8 11.3 0.00 0.10 0.10 76 1005.6
20260505210846 10 293 3.2 11.3 0.00 0.10 0.10 78 1005.4
20260505205745 10 293 3.2 4.8 0.03 0.10 0.10 79 1005.6
20260505204745 10 293 4.8 9.7 0.08 0.10 0.10 79 1005.3
20260505203745 10 293 4.8 9.7 0.10 0.10 0.10 78 1005.5
20260505202745 10 0 3.2 6.4 0.10 0.10 0.10 83 1005.2
20260505201745 10 0 1.6 9.7 0.10 0.10 0.10 84 1005.0
20260505200745 10 0.0 0.0 0.10 0.10 0.10 83 1005.1
20260505195806 11 0 1.6 6.4 0.08 0.08 0.08 77 1005.2
20260505194745 12 338 1.6 8.0 0.03 0.03 0.03 71 1004.9
20260505193745 13 315 6.4 20.9 0.00 0.00 0.00 60 1004.8
20260505192745 13 293 9.7 20.9 0.00 0.00 0.00 56 1004.5
20260505191805 14 293 11.3 22.5 0.00 0.00 0.00 54 1004.0
20260505190745 15 315 9.7 25.7 0.00 0.00 0.00 52 1004.2
20260505185745 15 315 8.0 17.7 0.00 0.00 0.00 52 1004.0
20260505184745 15 293 8.0 16.1 0.00 0.00 0.00 52 1003.7
20260505183745 15 293 9.7 20.9 0.00 0.00 0.00 52 1003.8
20260505182745 15 293 8.0 19.3 0.00 0.00 0.00 52 1003.5
20260505181745 15 293 8.0 22.5 0.00 0.00 0.00 53 1003.3
20260505180745 15 293 8.0 29.0 0.00 0.00 0.00 53 1003.1
20260505175745 16 270 6.4 24.1 0.00 0.00 0.00 54 1003.0
20260505174745 16 293 9.7 22.5 0.00 0.00 0.00 54 1002.8
20260505173745 16 293 8.0 16.1 0.00 0.00 0.00 56 1002.6
20260505172745 16 293 9.7 19.3 0.00 0.00 0.00 58 1002.5
20260505171745 16 293 9.7 20.9 0.00 0.00 0.00 57 1002.3
20260505170745 16 293 9.7 22.5 0.00 0.00 0.00 59 1002.2
20260505165745 16 315 3.2 9.7 0.00 0.00 0.00 65 1002.0
20260505164745 16 315 3.2 8.0 0.00 0.00 0.00 67 1001.9
20260505163746 15 293 3.2 11.3 0.00 0.00 0.00 68 1002.1
20260505162744 15 293 4.8 9.7 0.00 0.00 0.00 68 1002.3
20260505161805 15 0 1.6 6.4 0.00 0.00 0.00 69 1002.3
20260505160805 15 293 3.2 9.7 0.00 0.00 0.00 69 1002.3
20260505152745 14 293 6.4 16.1 0.00 0.00 0.00 71 1002.0
20260505151744 15 293 6.4 12.9 0.00 0.00 0.00 71 1001.7
20260505150744 15 293 6.4 12.9 0.00 0.00 0.00 72 1001.2
20260505124744 16 270 8.0 20.9 0.00 0.00 0.00 74 998.9